Time,TemperatureF,DewpointF,PressureIn,WindDirection,WindDirectionDegrees,WindSpeedMPH,WindSpeedGustMPH,Humidity,HourlyPrecipIn,Conditions,Clouds,dailyrainin,SoftwareType,DateUTC
2013-09-06 00:14:00,64.0,58.0,30.14,NE,48,0.0,3.0,82,0.00,,,0.00,,2013-09-06 04:14:00,
2013-09-06 09:11:00,59.0,53.0,30.17,ENE,77,0.0,3.0,80,0.00,,,0.00,,2013-09-06 13:11:00,
2013-09-06 09:22:00,60.0,53.0,30.17,NNE,24,0.0,4.0,78,0.00,,,0.00,,2013-09-06 13:22:00,
2013-09-06 09:42:00,61.0,53.0,30.16,SE,126,0.0,4.0,76,0.00,,,0.00,,2013-09-06 13:42:00,
2013-09-06 09:52:00,63.0,54.0,30.16,ESE,103,1.0,5.0,73,0.00,,,0.00,,2013-09-06 13:52:00,
2013-09-06 10:11:00,65.0,53.0,30.16,SE,133,2.0,7.0,66,0.00,,,0.00,,2013-09-06 14:11:00,
2013-09-06 10:22:00,66.0,53.0,30.16,ESE,110,2.0,8.0,62,0.00,,,0.00,,2013-09-06 14:22:00,
2013-09-06 10:52:00,69.0,55.0,30.16,ESE,103,1.0,5.0,60,0.00,,,0.00,,2013-09-06 14:52:00,
2013-09-06 11:11:00,70.0,55.0,30.16,ESE,110,2.0,5.0,59,0.00,,,0.00,,2013-09-06 15:11:00,
2013-09-06 11:22:00,71.0,55.0,30.16,ESE,117,1.0,6.0,58,0.00,,,0.00,,2013-09-06 15:22:00,
2013-09-06 11:53:00,73.0,57.0,30.16,SSE,165,2.0,5.0,58,0.00,,,0.00,,2013-09-06 15:53:00,
2013-09-06 12:13:00,74.0,57.0,30.16,ENE,61,1.0,5.0,56,0.00,,,0.00,,2013-09-06 16:13:00,
2013-09-06 12:24:00,75.0,58.0,30.15,SSE,152,1.0,4.0,55,0.00,,,0.00,,2013-09-06 16:24:00,
2013-09-06 12:43:00,76.0,58.0,30.16,SSE,161,1.0,5.0,54,0.00,,,0.00,,2013-09-06 16:43:00,
2013-09-06 12:53:00,77.0,59.0,30.15,SE,138,1.0,5.0,53,0.00,,,0.00,,2013-09-06 16:53:00,
2013-09-06 13:13:00,78.0,59.0,30.15,SSE,153,1.0,4.0,52,0.00,,,0.00,,2013-09-06 17:13:00,
2013-09-06 13:24:00,79.0,60.0,30.14,SE,141,2.0,6.0,52,0.00,,,0.00,,2013-09-06 17:24:00,
2013-09-06 13:43:00,80.0,60.0,30.14,SE,134,0.0,5.0,50,0.00,,,0.00,,2013-09-06 17:43:00,
2013-09-06 13:53:00,81.0,61.0,30.13,ESE,119,0.0,4.0,50,0.00,,,0.00,,2013-09-06 17:53:00,
2013-09-06 14:12:00,81.0,62.0,30.12,SW,221,1.0,7.0,52,0.00,,,0.00,,2013-09-06 18:12:00,
2013-09-06 14:22:00,82.0,63.0,30.12,SSW,200,1.0,5.0,52,0.00,,,0.00,,2013-09-06 18:22:00,
2013-09-06 14:42:00,82.0,63.0,30.11,South,191,1.0,4.0,52,0.00,,,0.00,,2013-09-06 18:42:00,
2013-09-06 14:52:00,82.0,63.0,30.10,SW,234,1.0,6.0,53,0.00,,,0.00,,2013-09-06 18:52:00,
2013-09-06 15:12:00,83.0,64.0,30.10,ESE,105,0.0,2.0,52,0.00,,,0.00,,2013-09-06 19:12:00,
2013-09-06 15:22:00,83.0,64.0,30.09,WSW,237,2.0,6.0,53,0.00,,,0.00,,2013-09-06 19:22:00,
2013-09-06 15:43:00,84.0,65.0,30.08,WNW,291,0.0,6.0,53,0.00,,,0.00,,2013-09-06 19:43:00,
2013-09-06 15:52:00,84.0,64.0,30.08,South,188,0.0,3.0,52,0.00,,,0.00,,2013-09-06 19:52:00,
2013-09-06 16:12:00,84.0,64.0,30.07,ESE,123,1.0,4.0,52,0.00,,,0.00,,2013-09-06 20:12:00,
2013-09-06 16:23:00,84.0,64.0,30.06,ENE,63,2.0,5.0,52,0.00,,,0.00,,2013-09-06 20:23:00,
2013-09-06 16:42:00,83.0,64.0,30.06,East,94,0.0,6.0,52,0.00,,,0.00,,2013-09-06 20:42:00,
2013-09-06 16:52:00,84.0,65.0,30.05,SSE,161,0.0,4.0,53,0.00,,,0.00,,2013-09-06 20:52:00,
2013-09-06 17:12:00,84.0,64.0,30.05,SSW,206,0.0,3.0,52,0.00,,,0.00,,2013-09-06 21:12:00,
2013-09-06 17:22:00,85.0,65.0,30.04,South,180,1.0,4.0,52,0.00,,,0.00,,2013-09-06 21:22:00,
2013-09-06 17:54:00,85.0,65.0,30.03,WSW,238,0.0,3.0,51,0.00,,,0.00,,2013-09-06 21:54:00,
2013-09-06 18:13:00,85.0,65.0,30.03,SSW,192,0.0,4.0,51,0.00,,,0.00,,2013-09-06 22:13:00,
2013-09-06 18:23:00,85.0,65.0,30.02,ESE,104,1.0,4.0,51,0.00,,,0.00,,2013-09-06 22:23:00,
2013-09-06 18:53:00,84.0,65.0,30.02,SE,128,1.0,4.0,53,0.00,,,0.00,,2013-09-06 22:53:00,
2013-09-06 19:13:00,83.0,64.0,30.02,ENE,78,0.0,5.0,53,0.00,,,0.00,,2013-09-06 23:13:00,
2013-09-06 19:23:00,83.0,66.0,30.02,SE,146,1.0,3.0,56,0.00,,,0.00,,2013-09-06 23:23:00,
2013-09-06 19:52:00,81.0,65.0,30.01,ESE,106,1.0,3.0,58,0.00,,,0.00,,2013-09-06 23:52:00,
2013-09-06 20:12:00,81.0,65.0,30.00,ESE,115,0.0,3.0,59,0.00,,,0.00,,2013-09-07 00:12:00,
2013-09-06 20:22:00,80.0,66.0,30.00,ESE,115,0.0,1.0,62,0.00,,,0.00,,2013-09-07 00:22:00,
2013-09-06 20:42:00,79.0,65.0,30.01,ESE,115,0.0,0.0,63,0.00,,,0.00,,2013-09-07 00:42:00,
2013-09-06 20:52:00,79.0,67.0,30.00,ESE,115,0.0,0.0,66,0.00,,,0.00,,2013-09-07 00:52:00,
2013-09-06 21:12:00,78.0,66.0,30.00,ESE,115,0.0,0.0,67,0.00,,,0.00,,2013-09-07 01:12:00,
2013-09-06 21:22:00,76.0,65.0,30.00,ESE,115,0.0,0.0,70,0.00,,,0.00,,2013-09-07 01:22:00,
2013-09-06 21:42:00,75.0,65.0,30.01,ESE,115,0.0,0.0,71,0.00,,,0.00,,2013-09-07 01:42:00,
2013-09-06 21:53:00,75.0,65.0,30.01,ESE,115,0.0,0.0,72,0.00,,,0.00,,2013-09-07 01:53:00,
2013-09-06 22:12:00,74.0,64.0,30.01,ESE,115,0.0,0.0,72,0.00,,,0.00,,2013-09-07 02:12:00,
2013-09-06 22:23:00,73.0,65.0,30.01,ESE,115,0.0,0.0,75,0.00,,,0.00,,2013-09-07 02:23:00,
2013-09-06 22:42:00,72.0,64.0,30.01,ESE,115,0.0,0.0,77,0.00,,,0.00,,2013-09-07 02:42:00,
2013-09-06 22:52:00,72.0,65.0,30.01,ESE,117,0.0,0.0,78,0.00,,,0.00,,2013-09-07 02:52:00,
2013-09-06 23:12:00,70.0,64.0,30.01,ESE,117,0.0,0.0,80,0.00,,,0.00,,2013-09-07 03:12:00,
2013-09-06 23:23:00,70.0,64.0,30.01,ESE,117,0.0,0.0,81,0.00,,,0.00,,2013-09-07 03:23:00,
2013-09-06 23:55:00,69.0,63.0,30.00,SE,126,0.0,2.0,82,0.00,,,0.00,,2013-09-07 03:55:00,